AXM6138 WMKK-WMKP

Flight info

Callsign AXM6138
Flight time 0h 40m
Altitude 22000
Route ATIMU1D ATIMU Y506 TEPUS DCT GORVU
Aircraft A320/M-SDE3FGHIRWY/LB1

Departure

Time 2026-04-25 14:05
Airport Kuala Lumpur International Airport (WMKK)

Arrival

Time 2026-04-25 14:45
Airport Penang International Airport (WMKP)
Time Latitude Longitude Altitude Speed Heading
2026-04-25 13:18 2.73953 101.68353 42 ft 0 kts 326°
2026-04-25 13:50 2.73945 101.68358 40 ft 4 kts 326°
2026-04-25 13:51 2.73923 101.68374 41 ft 4 kts 312°
2026-04-25 13:51 2.73913 101.68392 42 ft 4 kts 241°
2026-04-25 13:51 2.73923 101.68407 40 ft 0 kts 236°
2026-04-25 13:54 2.73918 101.68400 41 ft 3 kts 236°
2026-04-25 13:54 2.73887 101.68402 42 ft 7 kts 154°
2026-04-25 13:54 2.73843 101.68359 40 ft 13 kts 250°
2026-04-25 13:55 2.73782 101.68269 42 ft 19 kts 236°
2026-04-25 13:55 2.73718 101.68179 39 ft 12 kts 220°
2026-04-25 13:55 2.73641 101.68203 40 ft 14 kts 139°
2026-04-25 13:55 2.73556 101.68263 38 ft 17 kts 148°
2026-04-25 13:56 2.73517 101.68288 40 ft 3 kts 146°
2026-04-25 13:56 2.73460 101.68325 40 ft 16 kts 148°
2026-04-25 13:56 2.73330 101.68396 40 ft 25 kts 154°
2026-04-25 13:56 2.73220 101.68479 39 ft 20 kts 137°
2026-04-25 13:57 2.73082 101.68580 40 ft 29 kts 145°
2026-04-25 13:57 2.73026 101.68619 40 ft 30 kts 146°
2026-04-25 13:57 2.72773 101.68788 40 ft 22 kts 144°
2026-04-25 13:57 2.72656 101.68870 40 ft 18 kts 147°
2026-04-25 13:58 2.72551 101.68941 38 ft 20 kts 146°
2026-04-25 13:58 2.72429 101.69023 40 ft 22 kts 146°
2026-04-25 13:58 2.72296 101.69112 40 ft 24 kts 146°
2026-04-25 13:58 2.72172 101.69196 40 ft 20 kts 146°
2026-04-25 13:59 2.72049 101.69279 40 ft 22 kts 146°
2026-04-25 13:59 2.71925 101.69362 40 ft 16 kts 146°
2026-04-25 13:59 2.71850 101.69401 40 ft 9 kts 174°
2026-04-25 13:59 2.71808 101.69370 40 ft 7 kts 238°
2026-04-25 14:00 2.71788 101.69339 37 ft 10 kts 237°
2026-04-25 14:00 2.71753 101.69241 39 ft 13 kts 285°
2026-04-25 14:00 2.71800 101.69149 39 ft 12 kts 281°
2026-04-25 14:00 2.71821 101.69093 39 ft 8 kts 326°
2026-04-25 14:01 2.71825 101.69090 39 ft 0 kts 326°
2026-04-25 14:04 2.71896 101.69043 39 ft 45 kts 326°
2026-04-25 14:04 2.72355 101.68734 37 ft 111 kts 326°
2026-04-25 14:05 2.73142 101.68205 38 ft 160 kts 326°
2026-04-25 14:05 2.74122 101.67546 458 ft 168 kts 327°
2026-04-25 14:05 2.75104 101.66898 1056 ft 169 kts 327°
2026-04-25 14:05 2.76054 101.66096 1435 ft 189 kts 302°
2026-04-25 14:06 2.76412 101.64786 1712 ft 212 kts 270°
2026-04-25 14:06 2.76388 101.63225 1959 ft 237 kts 269°
2026-04-25 14:06 2.76360 101.61490 2347 ft 261 kts 269°
2026-04-25 14:06 2.76336 101.59639 3082 ft 270 kts 269°
2026-04-25 14:07 2.76316 101.57719 3883 ft 276 kts 269°
2026-04-25 14:07 2.76434 101.55812 4653 ft 282 kts 283°
2026-04-25 14:07 2.77100 101.53964 5463 ft 285 kts 294°
2026-04-25 14:07 2.77897 101.52138 6289 ft 288 kts 295°
2026-04-25 14:08 2.78706 101.50286 7060 ft 292 kts 294°
2026-04-25 14:08 2.79521 101.48416 7827 ft 295 kts 294°
2026-04-25 14:08 2.80356 101.46496 8615 ft 299 kts 294°
2026-04-25 14:08 2.81189 101.44577 9383 ft 303 kts 294°
2026-04-25 14:09 2.82030 101.42633 10114 ft 306 kts 294°
2026-04-25 14:09 2.82888 101.40652 10438 ft 325 kts 294°
2026-04-25 14:09 2.83846 101.38480 10604 ft 348 kts 297°
2026-04-25 14:09 2.84660 101.37078 10820 ft 356 kts 306°
2026-04-25 14:10 2.86831 101.34583 11577 ft 362 kts 317°
2026-04-25 14:10 2.88624 101.32795 12205 ft 366 kts 316°
2026-04-25 14:10 2.90433 101.30981 12831 ft 370 kts 316°
2026-04-25 14:10 2.92257 101.29150 13466 ft 373 kts 316°
2026-04-25 14:11 2.94100 101.27303 14060 ft 376 kts 316°
2026-04-25 14:11 2.95958 101.25443 14603 ft 380 kts 316°
2026-04-25 14:11 2.97830 101.23568 15128 ft 383 kts 316°
2026-04-25 14:11 2.99722 101.21674 15664 ft 386 kts 316°
2026-04-25 14:12 3.01634 101.19761 16155 ft 390 kts 316°
2026-04-25 14:12 3.03561 101.17834 16671 ft 394 kts 316°
2026-04-25 14:12 3.05507 101.15887 17168 ft 397 kts 316°
2026-04-25 14:12 3.07468 101.13923 17669 ft 401 kts 316°
2026-04-25 14:13 3.09446 101.11942 18171 ft 404 kts 317°
2026-04-25 14:13 3.11443 101.09944 18608 ft 407 kts 317°
2026-04-25 14:13 3.13456 101.07930 19054 ft 410 kts 317°
2026-04-25 14:13 3.15476 101.05907 19506 ft 413 kts 316°
2026-04-25 14:14 3.17508 101.03867 19972 ft 415 kts 316°
2026-04-25 14:14 3.19569 101.01831 20406 ft 417 kts 320°
2026-04-25 14:14 3.21901 101.00107 20858 ft 417 kts 332°
2026-04-25 14:14 3.24523 100.98874 21307 ft 417 kts 343°
2026-04-25 14:15 3.27329 100.98169 21733 ft 416 kts 354°
2026-04-25 14:15 3.29240 100.97995 21866 ft 415 kts
2026-04-25 14:15 3.33109 100.97997 21923 ft 418 kts
2026-04-25 14:15 3.36018 100.98011 21923 ft 418 kts
2026-04-25 14:16 3.38936 100.98025 21925 ft 418 kts
2026-04-25 14:16 3.41848 100.98036 21925 ft 419 kts
2026-04-25 14:16 3.44757 100.98047 21920 ft 419 kts
2026-04-25 14:16 3.47674 100.98054 21920 ft 418 kts
2026-04-25 14:17 3.50584 100.98062 21921 ft 418 kts
2026-04-25 14:17 3.53491 100.98073 21921 ft 418 kts
2026-04-25 14:17 3.56402 100.98085 21919 ft 418 kts
2026-04-25 14:17 3.59314 100.98094 21918 ft 418 kts
2026-04-25 14:18 3.62219 100.98103 21911 ft 418 kts
2026-04-25 14:18 3.65095 100.98053 21910 ft 420 kts 357°
2026-04-25 14:18 3.67977 100.97555 21910 ft 422 kts 347°
2026-04-25 14:18 3.70745 100.96539 21911 ft 425 kts 338°
2026-04-25 14:19 3.73436 100.95328 21913 ft 425 kts 338°
2026-04-25 14:19 3.76136 100.94117 21910 ft 425 kts 338°
2026-04-25 14:19 3.78843 100.92908 21911 ft 425 kts 338°
2026-04-25 14:19 3.81545 100.91708 21909 ft 425 kts 338°
2026-04-25 14:20 3.84248 100.90508 21906 ft 425 kts 338°
2026-04-25 14:20 3.86073 100.89697 21906 ft 425 kts 338°
2026-04-25 14:20 3.89654 100.88107 21905 ft 425 kts 338°
2026-04-25 14:20 3.92354 100.86908 21904 ft 425 kts 338°
2026-04-25 14:21 3.95054 100.85707 21903 ft 425 kts 338°
2026-04-25 14:21 3.97759 100.84503 21902 ft 425 kts 338°
2026-04-25 14:21 4.00460 100.83300 21902 ft 425 kts 338°
2026-04-25 14:21 4.03160 100.82097 21903 ft 425 kts 338°
2026-04-25 14:22 4.05859 100.80894 21901 ft 425 kts 338°
2026-04-25 14:22 4.08562 100.79688 21902 ft 425 kts 338°
2026-04-25 14:22 4.11265 100.78482 21904 ft 425 kts 338°
2026-04-25 14:22 4.13971 100.77274 21906 ft 426 kts 338°
2026-04-25 14:23 4.16676 100.76069 21910 ft 426 kts 338°
2026-04-25 14:23 4.19387 100.74870 21910 ft 425 kts 338°
2026-04-25 14:23 4.22099 100.73686 21920 ft 425 kts 339°
2026-04-25 14:23 4.24812 100.72510 21921 ft 425 kts 339°
2026-04-25 14:24 4.27527 100.71337 21919 ft 425 kts 339°
2026-04-25 14:24 4.30244 100.70163 21919 ft 425 kts 339°
2026-04-25 14:24 4.32960 100.68987 21919 ft 425 kts 339°
2026-04-25 14:24 4.35678 100.67807 21917 ft 425 kts 339°
2026-04-25 14:25 4.38384 100.66625 21918 ft 425 kts 339°
2026-04-25 14:25 4.41092 100.65436 21915 ft 425 kts 338°
2026-04-25 14:25 4.43806 100.64243 21911 ft 425 kts 339°
2026-04-25 14:25 4.44720 100.63842 21910 ft 425 kts 339°
2026-04-25 14:26 4.49218 100.61881 21903 ft 425 kts 339°
2026-04-25 14:26 4.51932 100.60700 21900 ft 424 kts 339°
2026-04-25 14:26 4.54637 100.59523 21902 ft 424 kts 339°
2026-04-25 14:26 4.57336 100.58347 21902 ft 424 kts 339°
2026-04-25 14:27 4.60043 100.57167 21902 ft 424 kts 339°
2026-04-25 14:27 4.62746 100.55990 21903 ft 424 kts 339°
2026-04-25 14:27 4.65444 100.54814 21891 ft 422 kts 339°
2026-04-25 14:27 4.68111 100.53649 21644 ft 412 kts 339°
2026-04-25 14:28 4.70712 100.52512 21395 ft 404 kts 339°
2026-04-25 14:28 4.73281 100.51390 21157 ft 401 kts 339°
2026-04-25 14:28 4.75822 100.50279 20912 ft 391 kts 339°
2026-04-25 14:28 4.78241 100.49219 20679 ft 370 kts 339°
2026-04-25 14:29 4.80556 100.48200 20409 ft 359 kts 337°
2026-04-25 14:29 4.82650 100.46866 19752 ft 358 kts 319°
2026-04-25 14:29 4.84282 100.44981 19060 ft 358 kts 309°
2026-04-25 14:29 4.85782 100.42997 18386 ft 356 kts 309°
2026-04-25 14:30 4.87277 100.41022 17683 ft 354 kts 309°
2026-04-25 14:30 4.90220 100.37147 16374 ft 345 kts 309°
2026-04-25 14:30 4.91667 100.35247 15734 ft 341 kts 309°
2026-04-25 14:31 4.93098 100.33368 15117 ft 338 kts 309°
2026-04-25 14:31 4.94516 100.31504 14511 ft 334 kts 309°
2026-04-25 14:31 4.95920 100.29660 13920 ft 331 kts 309°
2026-04-25 14:31 4.97310 100.27835 13288 ft 328 kts 309°
2026-04-25 14:32 4.98687 100.26023 12655 ft 324 kts 308°
2026-04-25 14:32 5.00046 100.24237 12026 ft 321 kts 308°
2026-04-25 14:32 5.01392 100.22473 11416 ft 317 kts 308°
2026-04-25 14:32 5.02716 100.20725 10695 ft 315 kts 306°
2026-04-25 14:33 5.03629 100.18710 10010 ft 314 kts 286°
2026-04-25 14:33 5.04395 100.16740 9871 ft 292 kts 301°
2026-04-25 14:33 5.05550 100.15185 9657 ft 267 kts 316°
2026-04-25 14:33 5.06943 100.14046 9076 ft 253 kts 331°
2026-04-25 14:34 5.08459 100.13343 8771 ft 231 kts 344°
2026-04-25 14:34 5.09992 100.13011 8357 ft 217 kts 358°
2026-04-25 14:34 5.11395 100.13013 8248 ft 189 kts
2026-04-25 14:34 5.12644 100.13240 7922 ft 178 kts 18°
2026-04-25 14:35 5.13795 100.13667 7508 ft 176 kts 28°
2026-04-25 14:35 5.14829 100.14268 7044 ft 177 kts 36°
2026-04-25 14:35 5.15875 100.15153 5850 ft 215 kts 46°
2026-04-25 14:35 5.16938 100.16336 4691 ft 237 kts 50°
2026-04-25 14:36 5.18085 100.17574 3678 ft 244 kts 38°
2026-04-25 14:36 5.19458 100.18373 3554 ft 220 kts 24°
2026-04-25 14:36 5.20876 100.18730 3119 ft 210 kts 356°
2026-04-25 14:36 5.22223 100.18235 2547 ft 209 kts 324°
2026-04-25 14:37 5.23324 100.17302 2073 ft 203 kts 317°
2026-04-25 14:37 5.24292 100.16383 1997 ft 179 kts 314°
2026-04-25 14:37 5.24792 100.15340 1993 ft 163 kts 270°
2026-04-25 14:37 5.24487 100.14280 2002 ft 158 kts 241°
2026-04-25 14:38 5.23910 100.13348 2002 ft 157 kts 236°
2026-04-25 14:38 5.23290 100.12447 2007 ft 157 kts 234°
2026-04-25 14:38 5.22664 100.11551 2008 ft 157 kts 234°
2026-04-25 14:38 5.22036 100.10658 2009 ft 156 kts 234°
2026-04-25 14:39 5.21409 100.09767 2009 ft 156 kts 234°
2026-04-25 14:39 5.20739 100.08908 2000 ft 156 kts 217°
2026-04-25 14:39 5.19731 100.08617 2008 ft 155 kts 168°
2026-04-25 14:39 5.18851 100.09174 2008 ft 154 kts 119°
2026-04-25 14:40 5.18496 100.10178 2009 ft 154 kts 101°
2026-04-25 14:40 5.18351 100.11243 2002 ft 154 kts 86°
2026-04-25 14:40 5.18548 100.12298 2006 ft 154 kts 73°
2026-04-25 14:40 5.18888 100.13317 2004 ft 155 kts 70°
2026-04-25 14:41 5.19251 100.14318 2005 ft 155 kts 70°
2026-04-25 14:41 5.19628 100.15342 2005 ft 155 kts 69°
2026-04-25 14:41 5.20002 100.16354 2005 ft 154 kts 69°
2026-04-25 14:41 5.20375 100.17363 2006 ft 155 kts 69°
2026-04-25 14:42 5.20750 100.18376 2006 ft 155 kts 69°
2026-04-25 14:42 5.20871 100.18702 2007 ft 155 kts 69°
2026-04-25 14:42 5.21507 100.20379 1996 ft 155 kts 62°
2026-04-25 14:42 5.22292 100.21078 1868 ft 155 kts 26°
2026-04-25 14:43 5.23170 100.21709 1495 ft 156 kts 46°
2026-04-25 14:43 5.23943 100.22450 1239 ft 152 kts 42°
2026-04-25 14:43 5.24724 100.23161 1023 ft 150 kts 42°
2026-04-25 14:43 5.25496 100.23861 846 ft 150 kts 43°
2026-04-25 14:44 5.26269 100.24561 668 ft 150 kts 43°
2026-04-25 14:44 5.27040 100.25261 477 ft 149 kts 43°
2026-04-25 14:44 5.27813 100.25956 272 ft 148 kts 43°
2026-04-25 14:44 5.28581 100.26646 70 ft 148 kts 44°
2026-04-25 14:45 5.29287 100.27301 27 ft 126 kts 42°
2026-04-25 14:45 5.29788 100.27755 25 ft 56 kts 42°
2026-04-25 14:45 5.29991 100.27936 25 ft 36 kts 41°
2026-04-25 14:45 5.30127 100.28035 26 ft 16 kts 356°
2026-04-25 14:46 5.30186 100.27993 24 ft 17 kts 310°
2026-04-25 14:46 5.30234 100.27935 23 ft 9 kts 298°
2026-04-25 14:46 5.30195 100.27871 23 ft 12 kts 219°
2026-04-25 14:46 5.30133 100.27811 23 ft 20 kts 225°
2026-04-25 14:47 5.30013 100.27696 23 ft 23 kts 223°
2026-04-25 14:47 5.29944 100.27632 23 ft 20 kts 222°
2026-04-25 14:47 5.29769 100.27472 23 ft 22 kts 222°
2026-04-25 14:47 5.29659 100.27372 23 ft 14 kts 222°
2026-04-25 14:48 5.29559 100.27281 23 ft 25 kts 221°
2026-04-25 14:48 5.29426 100.27164 23 ft 28 kts 221°
2026-04-25 14:48 5.29341 100.27053 23 ft 19 kts 278°
2026-04-25 14:48 5.29407 100.26956 23 ft 11 kts 286°
2026-04-25 14:49 5.29378 100.26898 23 ft 9 kts 221°
2026-04-25 14:49 5.29318 100.26844 23 ft 9 kts 222°
2026-04-25 14:49 5.29266 100.26798 24 ft 9 kts 221°
2026-04-25 14:49 5.29222 100.26759 24 ft 9 kts 221°
2026-04-25 14:50 5.29177 100.26719 23 ft 5 kts 223°
2026-04-25 14:50 5.29180 100.26694 23 ft 2 kts 302°
2026-04-25 14:50 5.29195 100.26679 25 ft 2 kts 311°
2026-04-25 14:50 5.29203 100.26670 23 ft 1 kts 312°
2026-04-25 14:51 5.29209 100.26663 23 ft 2 kts 311°
2026-04-25 14:51 5.29215 100.26656 23 ft 1 kts 311°
2026-04-25 14:51 5.29219 100.26651 23 ft 1 kts 311°
2026-04-25 14:51 5.29222 100.26648 23 ft 0 kts 311°